Regional Weather Roundup
Issued by NWS

Home | Current Version | Previous Version | Text Only | Print | Product List | Glossary On
Versions: 1 2 3 4 5 6 7 8 9 10 11 12 13 14 15 16 17 18 19 20 21 22 23 24 25 26 27 28 29 30 31 32 33 34 35 36 37 38 39 40 41 42 43 44 45 46 47 48 49
000
ASUS46 KSEW 301310
RWRWA

WASHINGTON REGIONAL WEATHER ROUNDUP
NATIONAL WEATHER SERVICE SEATTLE WA
500 AM PST FRI JAN 30 2015

NOTE:"FAIR" INDICATES FEW OR NO CLOUDS BELOW 12,000 FEET WITH NO
SIGNIFICANT WEATHER AND/OR OBSTRUCTIONS TO VISIBILITY.

WAZ505-507>509-301400-
SEATTLE, TACOMA, EVERETT, AND VICINITY

CITY           SKY/WX    TMP DP  RH WIND       PRES   REMARKS
EVERETT        PTCLDY    39  37  92 N3        30.30F
BOEING FIELD   CLOUDY    40  37  89 CALM      30.32F FOG
RENTON         CLOUDY    34  33  96 CALM      30.33S
SEATAC AIRPORT PTCLDY    35  34  96 N5        30.32R FOG
JBLM-MCCHORD   FOG       32  32 100 CALM      30.32R VSB 1/2
PUYALLUP       FOG       32  32 100 CALM      30.30S VSB 1/2
BREMERTON      CLEAR     39  37  93 E3        30.33F
JBLM-FT LEWIS  FOG       36  36 100 SW1       30.31S VSB 1/2
TACOMA NARROWS CLOUDY    42  41  96 CALM      30.31F
$$

WAZ001-503-506-510-514-515-301400-
NORTH INTERIOR

CITY           SKY/WX    TMP DP  RH WIND       PRES   REMARKS
BELLINGHAM     PTCLDY    34  31  88 CALM      30.32S
FRIDAY HARBOR  CLEAR     37  37 100 CALM      30.33S
EASTSOUND      MOCLDY    41  41 100 CALM      30.31S FOG
PORT ANGELES   CLEAR     33  31  92 SE3       30.31S
NAS WHIDBEY    PTCLDY    36  33  89 SE6       30.32F
ARLINGTON      CLOUDY    30  27  86 CALM      30.32F VSB 1/2
BURLINGTON     CLEAR     34 N/A N/A CALM      30.33S
$$

WAZ020-022-039-040-504-511-512-301400-
SOUTHWEST INTERIOR

CITY           SKY/WX    TMP DP  RH WIND       PRES   REMARKS
SHELTON        FOG       30  28  92 CALM      30.30S VSB 1/2
OLYMPIA        FOG       32  31  96 CALM      30.33R VSB 1/2
CHEHALIS       FOG       37  37 100 CALM      30.32R VSB 1/4
KELSO          CLOUDY    37  36  93 CALM      30.34S
VANCOUVER      MOCLDY    32  30  92 CALM      30.31S FOG
SCAPPOOSE, OR  FOG       33  32  96 W3        30.30S VSB 1/4
PORTLAND, OR   CLEAR     35  34  96 CALM      30.31S
$$

WAZ021-516-517-301400-
WASHINGTON COAST

CITY           SKY/WX    TMP DP  RH WIND       PRES   REMARKS
FORKS          PTCLDY    32  31  96 CALM      30.30S
HOQUIAM        CLEAR     36  35  96 E7        30.30R
ASTORIA, OR    MOCLDY    38  37  97 CALM      30.27R FOG
$$

WAZ019-023-024-040-518-519-301400-
CASCADE MOUNTAINS AND COLUMBIA GORGE

CITY           SKY/WX    TMP DP  RH WIND       PRES   REMARKS
TROUTDALE, OR  CLEAR     43  33  68 E18G30    30.29S
THE DALLES, OR CLOUDY    39  36  89 E3        30.45S
$$

WAZ026-027-041>044-520-521-301400-
EAST SLOPES

CITY           SKY/WX    TMP DP  RH WIND       PRES   REMARKS
OMAK           CLOUDY    33  31  92 W3        30.41F
WENATCHEE      CLOUDY    34  30  85 NW6       30.41F
ELLENSBURG     CLOUDY    34  31  88 NW6       30.39S FOG
YAKIMA         CLOUDY    37  34  89 CALM      30.43S FOG
$$

WAZ028-034-035-301400-
COLUMBIA BASIN

CITY           SKY/WX    TMP DP  RH WIND       PRES   REMARKS
EPHRATA        CLOUDY    38  34  85 N3        30.39F
MOSES LAKE     CLOUDY    35  34  96 SE7       30.41S FOG
PASCO          CLOUDY    37  37 100 W5        30.46R FOG
HERMISTON, OR  CLOUDY    37  35  92 NW3       30.43S FOG
$$

WAZ036>038-301400-
NORTHEAST WASHINGTON

CITY           SKY/WX    TMP DP  RH WIND       PRES   REMARKS
SPOKANE GEIGER FOG       29  28  96 NE6       30.36R VSB 1/4
SPOKANE FELTS  CLOUDY    30  28  92 N5        30.39R
FAIRCHILD AFB  FOG       27  27 100 N5        30.35R VSB 1/2
COEURDALENE,ID CLOUDY    30  28  93 N14       30.35S WCI  20
DEER PARK      CLOUDY    27  26  96 NE5       30.38S FOG
$$

WAZ029>033-301400-
SOUTHEAST WASHINGTON

CITY           SKY/WX    TMP DP  RH WIND       PRES   REMARKS
PULLMAN        FOG       31  31 100 S3        30.36R VSB 3/4
LEWISTON, ID   CLOUDY    37  36  96 CALM      30.38R FOG
WALLA WALLA    CLOUDY    35  32  88 S5        30.41R FOG
PENDLETON, OR  CLOUDY    34  32  92 CALM      30.40R
$$


USA.gov is the U.S. government's official web portal to all federal, state and local government web resources and services.